{"data":{"norad_id":45417,"epoch":"2026-05-25T02:53:41.974080Z","epoch_age_seconds":65402,"freshness":"FRESH","line1":"1 45417U 20019BK  26145.12062470  .00049122  00000+0  54685-3 0  9991","line2":"2 45417  53.0455 121.5298 0001183 112.2635 247.8504 15.62384481342119","mean_motion":15.62384481,"eccentricity":0.0001183,"inclination_deg":53.0455,"raan_deg":121.5298,"arg_perigee_deg":112.2635,"mean_anomaly_deg":247.8504,"bstar":0.00054685,"rev_number":34211,"period_min":92.166814091646,"perigee_km":379.9718669175,"apogee_km":381.57102465578,"semimajor_km":6758.9084457866,"source":"CELESTRAK","updated_at":"2026-05-25T13:38:16.420275Z"}}